BMCB-21 Weather Reports


time (UTC)temp
C
wind
direction
speed
KPH
gust
KPH
rain 1hr
cm
rain 24hr
cm
rain mn
cm
humidity
%
barometer
mb
20260507065021 10 0 0.0 0.0 0.00 0.13 0.00 86 1014.4
20260507064044 10 0 0.0 0.0 0.00 0.13 0.00 87 1014.3
20260507063042 10 0 0.0 0.0 0.00 0.15 0.00 87 1014.2
20260507062043 10 0 0.0 0.0 0.00 0.15 0.00 89 1014.1
20260507061045 9 0 0.0 0.0 0.00 0.15 0.00 89 1014.0
20260507060042 8 0 0.0 0.0 0.00 0.15 0.00 90 1014.0
20260507055041 8 0 0.0 0.0 0.00 0.15 0.00 92 1013.9
20260507054043 8 0 0.0 0.0 0.00 0.18 0.00 93 1013.8
20260507053045 8 0 0.0 0.0 0.00 0.20 0.00 94 1013.8
20260507052042 8 0 0.0 0.0 0.00 0.23 0.00 93 1013.7
20260507051045 8 0 0.0 0.0 0.00 0.23 0.00 94 1013.6
20260507050044 8 0 0.0 0.0 0.00 0.25 0.00 94 1013.5
20260507045045 8 0 0.0 0.0 0.00 0.28 0.00 94 1013.4
20260507044045 8 0 0.0 0.0 0.00 0.30 0.00 94 1013.3
20260507043045 8 0 0.0 0.0 0.00 0.33 0.00 94 1013.2
20260507042045 8 0 0.0 0.0 0.00 0.36 0.00 94 1013.1
20260507040047 7 0 0.0 0.0 0.00 0.38 0.00 95 1013.0
20260507033046 8 0 0.0 0.0 0.00 0.41 0.00 94 1012.9
20260507032046 8 0 0.0 0.0 0.00 0.41 0.00 94 1012.8
20260507031046 8 0 0.0 0.0 0.00 0.41 0.00 94 1012.8
20260507030043 8 0 0.0 0.0 0.00 0.41 0.00 93 1012.8
20260507025046 8 0 0.0 0.0 0.00 0.43 0.00 92 1012.8
20260507024043 8 0 0.0 0.0 0.00 0.43 0.00 91 1012.8
20260507022048 8 0 0.0 0.0 0.00 0.48 0.00 90 1012.6
20260507021046 8 0 0.0 0.0 0.00 0.51 0.00 88 1012.5
20260507020045 8 0 0.0 0.0 0.00 0.51 0.00 88 1012.4
20260507015044 8 0 0.0 0.0 0.00 0.53 0.00 89 1012.3
20260507014044 8 0 0.0 0.0 0.00 0.53 0.00 91 1012.3
20260507013259 7 0 0.0 0.0 0.00 0.56 0.00 95 1012.5
20260507012045 8 0 0.0 0.0 0.00 0.58 0.00 96 1012.5
20260507011045 8 0 0.0 0.0 0.00 0.61 0.00 96 1012.3
20260507010048 8 0 0.0 0.0 0.00 0.61 0.00 96 1012.3
20260507004050 8 0 0.0 0.0 0.00 0.66 0.00 96 1012.3
20260507003044 8 0 0.0 0.0 0.00 0.69 0.00 96 1012.2
20260507001044 8 0 0.0 0.0 0.00 0.71 0.00 96 1012.2
20260507000045 8 0 0.0 0.0 0.00 0.74 0.00 96 1012.2
20260506232049 7 0 0.0 0.0 0.00 0.84 0.00 96 1011.9
20260506231047 7 0 0.0 0.0 0.00 0.86 0.00 96 1011.9
20260506230021 7 0 0.0 0.0 0.00 0.89 0.00 97 1011.8
20260506225026 7 0 0.0 0.0 0.00 0.89 0.00 97 1011.8
20260506224022 7 0 0.0 0.0 0.00 0.89 0.00 97 1011.7
20260506223028 7 0 0.0 0.0 0.00 0.91 0.00 97 1011.6
20260506222022 7 0 0.0 0.0 0.00 0.91 0.00 97 1011.6
20260506221021 7 0 0.0 0.0 0.00 0.94 0.00 97 1011.5
20260506220028 6 0 0.0 0.0 0.00 0.97 0.00 97 1011.5
20260506214021 6 0 0.0 0.0 0.00 0.99 0.97 96 1011.4
20260506213024 6 0 0.0 0.0 0.00 0.99 0.97 96 1011.3
20260506212030 5 0 0.0 0.0 0.00 1.02 0.97 95 1011.3
20260506211026 6 0 0.0 0.0 0.00 1.04 0.97 94 1011.1
20260506210034 6 0 0.0 0.0 0.00 1.07 0.97 93 1011.0
20260506205025 6 0 0.0 0.0 0.00 1.09 0.97 92 1010.9
20260506204025 6 0 0.0 0.0 0.00 1.09 0.97 91 1010.8
20260506202049 7 0 0.0 0.0 0.00 1.12 0.97 89 1010.7
20260506201045 8 0 0.0 0.0 0.00 1.14 0.97 87 1010.7
20260506195029 8 0 0.0 0.0 0.00 1.17 0.97 85 1010.5
20260506194021 8 0 0.0 0.0 0.00 1.17 0.97 83 1010.3
20260506193022 9 0 0.0 0.0 0.00 1.19 0.97 82 1010.3
20260506192035 10 0 0.0 0.0 0.00 1.19 0.97 79 1010.1
20260506191022 10 0 0.0 0.0 0.00 1.22 0.97 78 1010.0
20260506190020 11 0 0.0 0.0 0.00 1.24 0.97 77 1009.7
20260506183022 11 0 0.0 0.0 0.00 1.27 0.97 80 1009.5
20260506182021 11 0 0.0 0.0 0.00 1.27 0.97 79 1009.3
20260506181021 12 0 0.0 0.0 0.00 1.30 0.97 78 1009.1
20260506180045 12 0 0.0 0.0 0.00 1.30 0.97 80 1009.0
20260506175044 12 0 0.0 0.0 0.00 1.32 0.97 84 1008.9
20260506174045 12 0 0.0 0.0 0.00 1.32 0.97 83 1008.7
20260506173027 12 0 0.0 0.0 0.00 1.35 0.97 81 1008.6
20260506172021 12 0 0.0 0.0 0.00 1.35 0.97 81 1008.6
20260506171047 12 0 0.0 0.0 0.00 1.35 0.97 81 1008.5
20260506165021 12 0 0.0 0.0 0.00 1.35 0.97 78 1008.4
20260506164047 12 0 0.0 0.0 0.00 1.35 0.97 78 1008.3
20260506163044 12 0 0.0 0.0 0.00 1.35 0.97 78 1008.3
20260506161021 12 0 0.0 0.0 0.00 1.35 0.97 78 1008.4
20260506160042 12 0 0.0 0.0 0.00 1.35 0.97 77 1008.3
20260506155021 12 0 0.0 0.0 0.00 1.35 0.97 75 1008.3
20260506154052 12 0 0.0 0.0 0.00 1.35 0.97 75 1008.3
20260506153021 12 0 0.0 0.0 0.00 1.35 0.97 76 1008.2
20260506152046 13 0 0.0 0.0 0.00 1.35 0.97 77 1008.1
20260506150044 13 0 0.0 0.0 0.00 1.35 0.97 79 1008.1
20260506145049 13 0 0.0 0.0 0.00 1.35 0.97 80 1008.0
20260506144046 13 0 0.0 0.0 0.00 1.35 0.97 82 1008.0
20260506143044 12 0 0.0 0.0 0.00 1.35 0.97 81 1008.1
20260506142022 12 0 0.0 0.0 0.00 1.35 0.97 81 1008.1
20260506141022 12 0 0.0 0.0 0.00 1.35 0.97 83 1008.2
20260506140050 12 0 0.0 0.0 0.00 1.35 0.97 83 1008.2
20260506135050 12 0 0.0 0.0 0.00 1.35 0.97 84 1008.2
20260506134022 12 0 0.0 0.0 0.00 1.35 0.97 85 1008.2
20260506133022 12 0 0.0 0.0 0.00 1.35 0.97 84 1008.2
20260506132042 12 0 0.0 0.0 0.00 1.35 0.97 86 1008.2
20260506131021 11 0 0.0 0.0 0.00 1.35 0.97 86 1008.2
20260506130022 11 0 0.0 0.0 0.00 1.35 0.97 85 1008.2
20260506124043 12 0 0.0 0.0 0.00 1.35 0.97 82 1008.0
20260506123046 12 0 0.0 0.0 0.00 1.35 0.97 85 1007.9
20260506122045 11 0 0.0 0.0 0.00 1.35 0.97 86 1007.9
20260506121041 12 0 0.0 0.0 0.00 1.35 0.97 84 1007.9
20260506114022 11 0 0.0 0.0 0.00 1.35 0.97 90 1007.9
20260506111046 10 0 0.0 0.0 0.00 1.35 0.97 91 1008.0
20260506110047 10 0 0.0 0.0 0.00 1.35 0.97 92 1008.0
20260506105023 10 0 0.0 0.0 0.00 1.35 0.97 93 1008.0
20260506104047 10 0 0.0 0.0 0.03 1.35 0.97 93 1008.1
20260506103045 10 0 0.0 0.0 0.03 1.35 0.97 94 1008.1
20260506102045 10 0 0.0 0.0 0.03 1.35 0.97 94 1008.0
20260506101022 10 0 0.0 0.0 0.05 1.35 0.97 95 1007.9
20260506100039 9 0 0.0 0.0 0.05 1.35 0.97 96 1007.8
20260506095046 9 0 0.0 0.0 0.08 1.35 0.97 96 1007.7
20260506094037 9 0 0.0 0.0 0.08 1.35 0.97 96 1007.7
20260506093042 9 0 0.0 0.0 0.05 1.32 0.94 96 1007.6
20260506092037 8 0 0.0 0.0 0.08 1.32 0.94 96 1007.5
20260506091046 8 0 0.0 0.0 0.08 1.32 0.94 97 1007.5
20260506090047 8 0 0.0 0.0 0.05 1.30 0.91 97 1007.4
20260506084028 8 0 0.0 0.0 0.03 1.27 0.89 97 1007.2
20260506083045 8 0 0.0 0.0 0.05 1.27 0.89 97 1007.1
20260506082046 8 0 0.0 0.0 0.05 1.27 0.89 97 1007.1
20260506081044 8 0 0.0 0.0 0.03 1.24 0.86 97 1007.0
20260506073038 8 0 0.0 0.0 0.05 1.27 0.86 97 1006.7
20260506072045 8 0 0.0 0.0 0.03 1.24 0.84 98 1006.7